This is the latest recevied weather packets stored in our database for station/object KB3FKJ. If no packets are shown the sender has not sent any weather packets the latest 10 day(s).
| Time | Temp. | Humidity | Pressure | Rain* | Wind** | Luminosity | Snow |
|---|---|---|---|---|---|---|---|
| 1777768287 | 5.56° C | 75% | 1013.2 hPa | 0 mm | - | 0 W/m² | - |
| 1777767985 | 5.56° C | 75% | 1013.2 hPa | 0 mm | - | 0 W/m² | - |
| 1777767681 | 5.56° C | 74% | 1013.2 hPa | 0 mm | - | 0 W/m² | - |
| 1777767377 | 5.56° C | 74% | 1013.5 hPa | 0 mm | - | 0 W/m² | - |
| 1777767075 | 5.56° C | 73% | 1013.3 hPa | 0 mm | - | 0 W/m² | - |
| 1777766772 | 5.56° C | 73% | 1013.4 hPa | 0 mm | - | 1 W/m² | - |
| 1777766469 | 5.56° C | 73% | 1013.4 hPa | 0 mm | - | 1 W/m² | - |
| 1777766165 | 5.56° C | 73% | 1013.3 hPa | 0 mm | - | 2 W/m² | - |
| 1777765864 | 5.56° C | 72% | 1013.4 hPa | 0 mm | - | 2 W/m² | - |
| 1777765559 | 5.56° C | 73% | 1013.3 hPa | 0 mm | - | 3 W/m² | - |
| 1777765257 | 6.11° C | 72% | 1013.2 hPa | 0 mm | - | 4 W/m² | - |
| 1777764957 | 6.11° C | 72% | 1013.1 hPa | 0 mm | - | 5 W/m² | - |
| 1777764655 | 6.11° C | 71% | 1013.2 hPa | 0 mm | - | 6 W/m² | - |
| 1777764350 | 6.11° C | 71% | 1013.3 hPa | 0 mm | - | 5 W/m² | - |
| 1777764048 | 6.11° C | 71% | 1013 hPa | 0 mm | - | 5 W/m² | - |
| 1777763745 | 6.11° C | 72% | 1013.2 hPa | 0 mm | - | 6 W/m² | - |
| 1777763443 | 6.11° C | 73% | 1013 hPa | 0 mm | - | 7 W/m² | - |
| 1777763141 | 6.11° C | 73% | 1013 hPa | 0 mm | - | 10 W/m² | - |
| 1777762839 | 6.11° C | 72% | 1013 hPa | 0 mm | - | 7 W/m² | - |
| 1777762534 | 6.67° C | 71% | 1013 hPa | 0 mm | - | 4 W/m² | - |
| 1777762232 | 6.67° C | 71% | 1013.1 hPa | 0 mm | - | 6 W/m² | - |
| 1777761928 | 6.67° C | 72% | 1013 hPa | 0 mm | - | 7 W/m² | - |
| 1777761625 | 6.67° C | 71% | 1013.1 hPa | 0 mm | - | 11 W/m² | - |
| 1777761323 | 6.67° C | 71% | 1012.9 hPa | 0 mm | - | 16 W/m² | - |
| 1777761021 | 6.67° C | 70% | 1012.9 hPa | 0 mm | - | 17 W/m² | - |
* Rain latest hour (hover to see other rain measurements)
** Current wind speed in m/s (hover to see current wind gust speed)